Regional Weather Roundup
Issued by NWS

Home | Current Version | Previous Version | Graphics & Text | Print | Product List | Glossary On
Versions: 1 2 3 4 5 6 7 8 9 10 11 12 13 14 15 16 17 18 19 20 21 22 23 24 25 26 27 28 29 30 31 32 33 34 35 36 37 38 39 40 41 42 43 44 45 46 47 48 49 50
000
ASUS43 KDMX 240007
RWRIA

WEATHER ROUNDUP FOR IOWA
NATIONAL WEATHER SERVICE DES MOINES IA
700 PM CDT SAT MAY 23 2015

NOTE: "FAIR" INDICATES FEW OR NO CLOUDS BELOW 12,000 FEET WITH NO
SIGNIFICANT WEATHER AND/OR OBSTRUCTIONS TO VISIBILITY.

* - THESE STATIONS ARE NOT NWS STATIONS...THUS NOT UNDER NWS
QUALITY CONTROL.  THEY ALSO DO NOT REPORT WEATHER SUCH
AS PRECIPITATION OR FOG.

IAZ001>003-012>014-020>022-031>034-043>046-240100-
   NORTHWEST IOWA

CITY           SKY/WX    TMP DP  RH WIND       PRES   REMARKS
CARROLL *      CLOUDY    66  57  72 S9        30.10F
CHEROKEE *     CLOUDY    65  55  70 S7        30.08F
DENISON *      CLOUDY    64  59  82 S6        30.07F
LE MARS *      CLOUDY    64  55  72 SE9G15    30.08F
ORANGE CITY *  MOSUNNY   63  54  72 S10       30.07F
SHELDON *      CLOUDY    66  54  63 S12G18    30.07F
SIOUX CITY     CLOUDY    64  54  69 SE8       30.07F
6HR MIN TEMP:  64; 6HR MAX TEMP:  66;

SPENCER        CLOUDY    68  52  56 S15       30.09F
6HR MIN TEMP:  67; 6HR MAX TEMP:  73; 6HR PCP: TRACE;

STORM LAKE *   CLOUDY    64  54  68 S13       30.10F
$$

IAZ055>058-069>071-079>083-090>094-240100-
   SOUTHWEST IOWA

CITY           SKY/WX    TMP DP  RH WIND       PRES   REMARKS
ATLANTIC *     CLOUDY    66  57  72 SE3       30.09F
AUDUBON *      CLOUDY    66  57  72 CALM      30.10F
CLARINDA *     CLOUDY    68  59  73 CALM      30.09F
COUNCIL BLFS * CLOUDY    64  63  94 E5        30.07F
CRESTON *      CLOUDY    68  57  68 SE14      30.09F
HARLAN  *      CLOUDY    66  63  88 SE6       30.12F
LAMONI         CLOUDY    69  56  62 SE9       30.09F
6HR MIN TEMP:  67; 6HR MAX TEMP:  72; 6HR PCP: TRACE;

RED OAK *      CLOUDY    66  59  77 S6        30.08F
SHENANDOAH *   CLOUDY    64  61  88 E8G14     30.07F
$$

IAZ047>049-059>061-072>074-084-240100-
   CENTRAL IOWA

CITY           SKY/WX    TMP DP  RH WIND       PRES   REMARKS
AMES           CLOUDY    70  52  52 S10       30.10F
6HR MIN TEMP:  64; 6HR MAX TEMP:  73; 6HR PCP:  0.01;

ANKENY *       CLOUDY    70  54  56 S7        30.11S
CHARITON *     CLOUDY    70  55  60 SE12      30.11S
DES MOINES     CLOUDY    72  53  51 S6        30.10F
6HR MIN TEMP:  64; 6HR MAX TEMP:  76; 6HR PCP: TRACE;

GRINNELL*      CLOUDY    72  48  43 S13       30.13S
KNOXVILLE *    MOSUNNY   72  52  49 SE10      30.10F
MARSHALLTOWN   CLOUDY    73  48  41 S15       30.11F
6HR MIN TEMP:  70; 6HR MAX TEMP:  75; 6HR PCP: TRACE;

PELLA *        CLOUDY    71  56  58 SE8       30.13F
PERRY *        CLOUDY    69  55  60 S3        30.10F
$$

IAZ004>006-015-016-023>025-035-036-240100-
   NORTH CENTRAL IOWA

CITY           SKY/WX    TMP DP  RH WIND       PRES   REMARKS
ALGONA *       CLOUDY    64  55  72 SE8G22    30.13F HAZE
CLARION *      CLOUDY    72  50  46 S12       30.12S
ESTHERVILLE    CLOUDY    67  45  45 S16       30.11F
6HR MIN TEMP:  66; 6HR MAX TEMP:  72; 6HR PCP: TRACE;

FORT DODGE *   CLOUDY    68  52  56 SE8       30.12F
MASON CITY     CLOUDY    72  46  39 S12       30.13F
6HR MIN TEMP:  72; 6HR MAX TEMP:  77;

FOREST CITY *  CLOUDY    66  50  55 CALM      30.13S
IOWA FALLS *   CLOUDY    72  46  40 SE12      30.12S
$$

IAZ007>011-017>019-026>030-037>042-050>054-066-240100-
   NORTHEAST IOWA

CITY           SKY/WX    TMP DP  RH WIND       PRES   REMARKS
CEDAR RAPIDS   PTSUNNY   75  44  33 S14       30.12F
6HR MIN TEMP:  74; 6HR MAX TEMP:  77;

CHARLES CITY * SUNNY     75  46  35 S17       30.13F
CLINTON *      PTSUNNY   75  48  38 S13       30.18F
DECORAH *      SUNNY     73  43  33 S6G13     30.15S
DUBUQUE        CLOUDY    72  53  51 S5        30.16F
6HR MIN TEMP:  72; 6HR MAX TEMP:  76;

MONTICELLO *   CLOUDY    75  48  38 S8G15     30.14F
OELWEIN *      SUNNY     73  48  40 S12       30.15F
WATERLOO       MOSUNNY   73  46  38 S12       30.12F
6HR MIN TEMP:  73; 6HR MAX TEMP:  76;

$$

IAZ064-065-067-068-078-240100-
   EAST CENTRAL IOWA

CITY           SKY/WX    TMP DP  RH WIND       PRES   REMARKS
DAVENPORT      PTSUNNY   78  47  33 S13       30.15F
6HR MIN TEMP:  76; 6HR MAX TEMP:  80;

IOWA CITY      PTSUNNY   76  47  35 S14       30.15F
6HR MIN TEMP:  74; 6HR MAX TEMP:  78;

MT. PLEASANT * CLOUDY    73  49  43 SE6       30.14F
MUSCATINE *    SUNNY     77  45  31 S10G17    30.14F
QUAD CITIES    PTSUNNY   77  45  32 S10       30.14F
6HR MIN TEMP:  77; 6HR MAX TEMP:  80;

$$

IAZ062-063-075>077-085>089-095>099-240100-
   SOUTHEAST IOWA

CITY           SKY/WX    TMP DP  RH WIND       PRES   REMARKS
BURLINGTON     CLOUDY    74  49  41 SE7       30.14F
6HR MIN TEMP:  74; 6HR MAX TEMP:  78;

FAIRFIELD *    SUNNY     72  50  46 SE8       30.13F
FORT MADISON * MOSUNNY   73  50  43 S7        30.15F
KEOKUK *       SUNNY     73  52  46 SE7       30.13F
OSKALOOSA *      N/A     72  48  42 SE14      30.13F
CENTERVILLE *  SUNNY     68  68 100 SE9       30.12F
OTTUMWA        CLOUDY    70  52  52 SE9       30.12F
6HR MIN TEMP:  70; 6HR MAX TEMP:  78; 6HR PCP: TRACE;

WASHINGTON *   SUNNY     73  48  40 S10       30.15F
$$

ABBREVIATIONS USED IN REMARKS
   TC - TEMPERATURES IN CELSIUS
  WCI - WIND CHILL INDEX
   HX - HEAT INDEX
  VSB - VISIBILITY
$$




USA.gov is the U.S. government's official web portal to all federal, state and local government web resources and services.